This is the latest recevied weather packets stored in our database for station/object KE7JVX-3. If no packets are shown the sender has not sent any weather packets the latest 10 day(s).
| Time | Temp. | Humidity | Pressure | Rain* | Wind** | Luminosity | Snow |
|---|---|---|---|---|---|---|---|
| 1777384308 | 3.33° C | 16% | 1011.4 hPa | 0 mm | - | - | - |
| 1777384167 | 3.33° C | 16% | 1011.4 hPa | 0 mm | - | - | - |
| 1777383805 | 2.78° C | 29% | 1011.3 hPa | 0 mm | - | - | - |
| 1777383567 | 2.78° C | 29% | 1011.3 hPa | 0 mm | - | - | - |
| 1777383126 | 2.22° C | 35% | 1011.2 hPa | 0 mm | - | - | - |
| 1777382967 | 2.22° C | 35% | 1011.2 hPa | 0 mm | - | - | - |
| 1777382552 | 2.22° C | 33% | 1011 hPa | 0 mm | - | - | - |
| 1777382367 | 2.22° C | 33% | 1011 hPa | 0 mm | - | - | - |
| 1777381934 | 2.22° C | 22% | 1010.9 hPa | 0 mm | - | - | - |
| 1777381769 | 2.22° C | 22% | 1010.9 hPa | 0 mm | - | - | - |
| 1777381059 | 2.22° C | 20% | 1010.7 hPa | 0 mm | - | - | - |
| 1777380926 | 2.22° C | 20% | 1010.7 hPa | 0 mm | - | - | - |
| 1777380326 | 2.22° C | 20% | 1010.6 hPa | 0 mm | - | - | - |
| 1777379368 | 2.22° C | 19% | 1010.5 hPa | 0 mm | - | - | - |
| 1777378768 | 2.22° C | 20% | 1010.3 hPa | 0 mm | - | - | - |
| 1777377754 | 2.22° C | 26% | 1010.3 hPa | 0 mm | - | - | - |
| 1777377152 | 2.22° C | 25% | 1010.1 hPa | 0 mm | - | - | - |
| 1777376554 | 2.78° C | 19% | 1010.2 hPa | 0 mm | - | - | - |
| 1777375953 | 2.78° C | 15% | 1010 hPa | 0 mm | - | - | - |
| 1777375353 | 2.78° C | 16% | 1010 hPa | 0 mm | - | - | - |
| 1777374752 | 2.78° C | 18% | 1009.9 hPa | 0 mm | - | - | - |
| 1777374152 | 2.78° C | 19% | 1009.9 hPa | 0 mm | - | - | - |
| 1777373553 | 2.78° C | 24% | 1009.9 hPa | 0 mm | - | - | - |
| 1777372953 | 2.78° C | 27% | 1010.1 hPa | 0 mm | - | - | - |
| 1777372353 | 2.78° C | 32% | 1010 hPa | 0 mm | - | - | - |
* Rain latest hour (hover to see other rain measurements)
** Current wind speed in m/s (hover to see current wind gust speed)